Location: Balls_Creek
(35.6670°N, 81.1170°W)
Time: 20:37:07
(UTC-04:00)

Daily predictions for brighter satellites

Satellite Brightness Start Highest point End
(mag) Time Altitude Azimuth Time Altitude Azimuth Time Altitude Azimuth
Cosmos 2112 Rocket 4.2 20:52:24 10° NNW 20:57:46 86° WSW 21:03:07 10° SSE
Cosmos 1898 Rocket 3.6 20:53:58 10° SSW 20:59:15 84° ESE 21:04:35 10° NNE
Cosmos 1680 Rocket 3.9 20:54:43 10° NNW 21:00:01 69° WSW 21:05:17 10° S
CENTAUR R/B 3.5 20:57:32 10° SSE 21:01:47 21° ESE 21:06:21 10° ENE
Cosmos 990 Rocket 4.1 20:57:19 10° S 21:02:19 53° ESE 21:07:24 10° NNE
ISS -3.6 21:03:35 10° SSW 21:06:44 48° SE 21:09:52 10° ENE
ATLAS 5 CENTAUR R/B 4.5 21:09:21 10° NNE 21:12:07 13° NE 21:15:01 10° ENE
Tsikada Rocket 4.0 21:06:08 10° S 21:12:20 74° E 21:18:30 10° N
YAOGAN 6 3.7 21:12:56 10° SE 21:16:08 28° ENE 21:19:21 10° NNE
USA 186 2.0 21:19:17 10° S 21:21:47 54° W 21:24:30 10° NNW
Tiangong 2 2.5 21:19:21 10° NW 21:22:19 33° NNE 21:25:16 10° E
Hubble Space Telescope 2.7 21:20:18 10° WSW 21:23:00 17° SSW 21:25:42 10° SSE
Aureole 3 4.5 21:22:34 13° ESE 21:23:40 16° E 21:25:35 10° NE
Meteor 2-3 Rocket 3.8 21:20:05 10° S 21:25:44 64° E 21:31:22 10° NNE
Meteor 2-10 Rocket 3.9 21:19:54 10° N 21:25:45 81° W 21:31:31 10° S
Cosmos 2034 Rocket 4.2 21:19:48 10° N 21:25:59 75° W 21:32:07 10° S
GPS 2-04 Rocket1 2.4 21:23:34 10° W 21:27:20 86° S 21:30:49 11° E
COSMOS 2487 3.5 21:25:39 10° NNW 21:29:05 46° WSW 21:32:28 10° S
Meteor 1-26 Rocket 4.3 21:24:16 10° N 21:29:55 69° E 21:35:38 10° SSE
OAO 2 Rocket 3.7 21:25:23 10° W 21:30:18 51° SSW 21:34:09 16° SE
Helios 1B rocket 2.4 21:29:14 10° NNE 21:33:19 61° ESE 21:37:20 10° S
Cosmos 1634 Rocket 4.3 21:29:05 10° N 21:35:09 48° E 21:40:43 12° SSE
H-2A R/B 4.0 21:32:37 11° E 21:35:25 15° ENE 21:38:23 10° NNE
Cosmos 2082 Rocket 3.5 21:31:19 10° NW 21:36:30 38° WSW 21:41:40 10° S
Cosmos 1937 Rocket 4.2 21:33:10 10° SSW 21:38:13 58° WNW 21:43:17 10° N
CZ-4B DEB 3.1 21:37:46 21° SE 21:39:17 39° ENE 21:42:03 10° N
Cosmos 2344 4.2 21:33:00 10° S 21:39:42 33° ESE 21:46:32 10° NE
SL-19 R/B 4.4 21:35:27 10° SSE 21:41:07 88° ENE 21:47:11 10° NNW
Lacrosse 4 Rocket 3.9 21:41:14 10° NE 21:42:08 10° NE 21:43:02 10° ENE
Cosmos 1408 3.8 21:42:05 21° ESE 21:43:22 25° E 21:46:28 10° NE
Cosmos 1825 3.2 21:45:47 22° ESE 21:46:59 26° E 21:50:11 10° NNE
Cosmos 1833 Rocket 4.3 21:42:43 10° NW 21:47:37 31° WSW 21:52:29 10° SSW
Meteor 1-29 2.9 21:44:48 10° NNE 21:48:18 75° ESE 21:51:46 10° S
TIMED 4.4 21:45:37 10° S 21:49:57 72° ESE 21:54:19 10° NNE
Resurs 01 Rocket 3.8 21:49:16 10° SSW 21:52:50 24° W 21:56:25 10° NW
Shenzhou-11 Module 2.2 21:50:46 10° WNW 21:53:50 62° NNE 21:55:05 31° E
Helios 1A 3.2 21:55:52 14° S 21:59:28 67° WSW 22:03:39 10° NNW
Molniya-1 3.7 21:58:25 10° SW 22:00:15 38° WNW 22:01:09 19° N
Cosmos 1892 4.2 21:57:52 10° SSW 22:01:28 38° W 22:05:05 10° N
MetOp-A 4.3 22:01:47 24° SE 22:04:51 54° ENE 22:10:03 10° N
COSMOS 2455 3.2 21:59:00 10° SW 22:04:58 69° WNW 22:10:59 10° NNE
ERS-1 Rocket 3.0 22:03:26 24° SSE 22:06:28 67° ENE 22:11:28 10° N
Cosmos 2279 Rocket 4.2 22:04:08 10° N 22:10:14 54° E 22:13:33 27° SE
Cosmos 1943 Rocket 2.1 22:04:46 10° S 22:10:16 62° ESE 22:15:46 10° NNE
Cosmos 2263 4.2 22:07:46 10° SSW 22:13:33 85° ESE 22:19:19 10° NNE
Cosmos 2142 Rocket 4.4 22:09:12 10° N 22:15:22 89° WSW 22:19:54 19° S
NOAA 11 4.1 22:13:36 24° SSE 22:16:59 85° ENE 22:22:29 10° NNW
USA 215 3.5 22:19:36 26° ESE 22:23:21 62° NE 22:29:49 10° NW
Milstar 3 3.7 22:12:45 10° WSW 22:23:51 45° S 22:27:31 29° ESE
Cosmos 1340 3.1 22:22:18 10° N 22:25:57 44° E 22:25:58 44° E
Okean 1-7 3.1 22:23:04 10° N 22:27:29 77° W 22:29:17 35° S
Lacrosse 5 rocket 2.8 22:24:43 10° WSW 22:27:59 33° NW 22:31:19 10° NNE
Cosmos 2369 Rocket 3.1 22:22:39 10° SW 22:28:07 50° WNW 22:33:38 10° N
SPOT 1/Viking Rocket 3.9 22:31:52 40° ESE 22:33:10 49° ENE 22:38:11 10° N
SL-08 RB Rocket 3.7 22:35:00 50° SE 22:36:04 68° ENE 22:40:42 10° N
DNEPR-1 R/B 4.3 22:31:20 10° SW 22:36:45 63° WNW 22:41:20 10° NNE
Cosmos 1606 2.6 22:33:05 10° N 22:36:52 77° W 22:37:22 63° SSW
Cosmos 468 4.5 22:33:53 10° NNW 22:39:09 81° WSW 22:40:55 43° S
ISS -0.8 22:41:05 10° WNW 22:43:22 18° NNW 22:45:40 10° NNE
Cosmos 372 Rocket 4.3 22:40:36 11° SSW 22:45:31 65° WNW 22:50:37 10° N
Cosmos 1733 Rocket 2.9 22:45:52 65° E 22:45:52 65° E 22:50:06 10° NNE
OAO 3 Copernicus 4.2 22:41:35 10° WSW 22:46:34 67° SSE 22:47:06 62° SE
Cosmos 1269 Rocket 3.9 22:42:22 10° NNW 22:47:40 76° ENE 22:48:45 56° SE
Meteor 1-27 Rocket 3.7 22:42:07 10° N 22:47:51 70° E 22:49:12 51° SE
Terra 2.8 22:49:48 32° ENE 22:49:48 32° ENE 22:54:00 10° N
Cosmos 1125 Rocket 4.4 22:46:25 10° SW 22:51:28 47° WNW 22:56:31 10° N
CENTAUR R/B 3.1 22:45:55 10° SW 22:51:43 55° NW 22:58:19 10° NNE
Nimbus 7 Rocket 4.3 22:51:18 10° NNE 22:57:13 90° ESE 22:59:43 37° SSW
ATLAS 5 CENTAUR R/B 2.5 22:51:47 10° NNW 22:57:51 66° ENE 22:59:28 49° ESE
Tiangong 2 3.1 22:56:12 10° WNW 22:57:47 25° W 22:57:47 25° W
SPOT 5 3.3 22:58:43 45° SSW 23:00:16 66° W 23:05:35 10° NNW
Meteor 2-20 4.4 23:03:29 57° SE 23:04:33 67° E 23:10:37 10° NNE
GPS 2-04 Rocket1 4.1 23:03:25 10° W 23:05:16 28° W 23:05:16 28° W
ARGOS 3.8 23:06:21 35° SSW 23:08:07 47° W 23:13:17 10° NNW
Cosmos 1656 Rocket 3.5 23:10:03 63° SSW 23:10:59 89° ESE 23:16:31 10° NNE
H-2A R/B 2.3 23:13:15 54° SSW 23:14:14 64° WSW 23:19:35 10° NNW
CARTOSAT-1 4.2 23:19:18 51° NNE 23:19:18 51° NNE 23:22:42 10° N
Lacrosse 4 Rocket 1.9 23:16:57 10° NNW 23:20:44 62° NW 23:20:44 62° NW
Cosmos 1674 Rocket 4.1 23:21:27 10° N 23:24:54 55° NNW 23:24:54 55° NNW
Meteor 1-14 Rocket 4.4 23:26:51 60° ENE 23:26:51 60° ENE 23:32:15 10° NNE
Cosmos 1092 Rocket 3.9 23:27:20 64° SSW 23:28:22 82° W 23:34:32 10° N
ATLAS CENTAUR R/B 4.0 23:33:00 11° NE 23:33:00 11° NE 23:33:11 10° NE
Cosmos 494 Rocket 4.2 23:24:24 10° N 23:29:03 59° NE 23:29:03 59° NE
SL-19 R/B 4.3 23:24:31 10° NNE 23:30:37 76° ESE 23:30:53 74° SE
H-2A R/B 3.4 23:37:08 34° N 23:37:08 34° N 23:39:36 10° N
Cosmos 1627 Rocket 4.4 23:35:54 74° E 23:35:59 75° E 23:42:17 10° N
Cosmos 2227 Rocket 4.1 23:35:26 10° NNE 23:39:07 17° NE 23:39:30 17° ENE
Cosmos 2219 3.6 23:38:21 10° NNW 23:43:36 54° NE 23:43:36 54° NE
CZ-4B R/B 4.4 23:42:54 10° NNE 23:46:05 39° NE 23:46:05 39° NE
